TimeAKDT,TemperatureF,Dew PointF,Humidity,Sea Level PressureIn,VisibilityMPH,Wind Direction,Wind SpeedMPH,Gust SpeedMPH,PrecipitationIn,Events,Conditions,WindDirDegrees,DateUTC
12:16 AM,28.4,21.2,74,30.55,10.0,North,5.8,-,N/A,,Clear,350,2012-10-09 08:16:00
12:36 AM,28.4,19.4,69,30.55,10.0,North,6.9,-,N/A,,Clear,360,2012-10-09 08:36:00
12:56 AM,28.4,21.2,74,30.55,10.0,NNW,6.9,-,N/A,,Clear,340,2012-10-09 08:56:00
1:16 AM,26.6,21.2,80,30.55,10.0,NW,6.9,-,N/A,,Clear,320,2012-10-09 09:16:00
1:36 AM,24.8,19.4,80,30.55,10.0,NW,9.2,-,N/A,,Clear,320,2012-10-09 09:36:00
1:56 AM,26.6,19.4,74,30.55,10.0,NNW,5.8,-,N/A,,Clear,340,2012-10-09 09:56:00
2:16 AM,24.8,19.4,80,30.55,10.0,North,8.1,-,N/A,,Clear,350,2012-10-09 10:16:00
2:36 AM,24.8,19.4,80,30.55,10.0,NNW,9.2,-,N/A,,Clear,330,2012-10-09 10:36:00
2:56 AM,24.8,19.4,80,30.55,10.0,NW,4.6,-,N/A,,Clear,320,2012-10-09 10:56:00
3:16 AM,24.8,19.4,80,30.55,10.0,NNW,8.1,-,N/A,,Clear,330,2012-10-09 11:16:00
3:36 AM,24.8,19.4,80,30.55,10.0,NNW,9.2,-,N/A,,Clear,330,2012-10-09 11:36:00
3:56 AM,24.8,19.4,80,30.55,10.0,NW,8.1,-,N/A,,Clear,320,2012-10-09 11:56:00
4:16 AM,26.6,19.4,74,30.55,10.0,NNW,8.1,-,N/A,,Clear,330,2012-10-09 12:16:00
4:36 AM,24.8,19.4,80,30.55,10.0,NW,5.8,-,N/A,,Clear,320,2012-10-09 12:36:00
4:56 AM,23.0,19.4,86,30.55,10.0,WNW,4.6,-,N/A,,Clear,300,2012-10-09 12:56:00
5:16 AM,23.0,19.4,86,30.55,10.0,WNW,6.9,-,N/A,,Clear,300,2012-10-09 13:16:00
5:36 AM,21.2,17.6,86,30.55,10.0,NW,6.9,-,N/A,,Clear,310,2012-10-09 13:36:00
5:56 AM,21.2,17.6,86,30.55,10.0,Calm,Calm,-,N/A,,Clear,0,2012-10-09 13:56:00
6:16 AM,21.2,19.4,93,30.56,10.0,WNW,3.5,-,N/A,,Clear,300,2012-10-09 14:16:00
6:36 AM,21.2,19.4,93,30.56,10.0,WNW,4.6,-,N/A,,Clear,300,2012-10-09 14:36:00
6:56 AM,21.2,17.6,86,30.56,10.0,WNW,5.8,-,N/A,,Clear,290,2012-10-09 14:56:00
7:16 AM,21.2,19.4,93,30.56,10.0,WNW,5.8,-,N/A,,Clear,290,2012-10-09 15:16:00
7:36 AM,21.2,17.6,86,30.56,10.0,NW,4.6,-,N/A,,Clear,310,2012-10-09 15:36:00
7:56 AM,21.2,15.8,80,30.56,10.0,North,3.5,-,N/A,,Clear,350,2012-10-09 15:56:00
8:16 AM,21.2,17.6,86,30.56,10.0,NW,3.5,-,N/A,,Clear,320,2012-10-09 16:16:00
8:36 AM,19.4,17.6,93,30.56,10.0,Calm,Calm,-,N/A,,Clear,0,2012-10-09 16:36:00
8:56 AM,21.2,17.6,86,30.56,10.0,WNW,4.6,-,N/A,,Clear,300,2012-10-09 16:56:00
9:16 AM,21.2,15.8,80,30.57,10.0,North,3.5,-,N/A,,Clear,350,2012-10-09 17:16:00
9:36 AM,19.4,15.8,86,30.57,10.0,Calm,Calm,-,N/A,,Clear,0,2012-10-09 17:36:00
9:56 AM,19.4,15.8,86,30.57,10.0,Calm,Calm,-,N/A,,Clear,0,2012-10-09 17:56:00
10:16 AM,19.4,17.6,93,30.58,10.0,SSE,3.5,-,N/A,,Clear,160,2012-10-09 18:16:00
10:36 AM,19.4,17.6,93,30.58,10.0,South,4.6,-,N/A,,Clear,180,2012-10-09 18:36:00
10:56 AM,19.4,17.6,93,30.58,10.0,SSE,4.6,-,N/A,,Clear,150,2012-10-09 18:56:00
11:16 AM,21.2,17.6,86,30.58,10.0,Calm,Calm,-,N/A,,Clear,0,2012-10-09 19:16:00
11:36 AM,23.0,19.4,86,30.58,10.0,Calm,Calm,-,N/A,,Clear,0,2012-10-09 19:36:00
11:56 AM,24.8,19.4,80,30.58,10.0,Calm,Calm,-,N/A,,Clear,0,2012-10-09 19:56:00
12:16 PM,26.6,21.2,80,30.58,10.0,Calm,Calm,-,N/A,,Clear,0,2012-10-09 20:16:00
12:36 PM,26.6,21.2,80,30.58,10.0,Calm,Calm,-,N/A,,Clear,0,2012-10-09 20:36:00
4:36 PM,35.6,19.4,52,30.55,10.0,Calm,Calm,-,N/A,,Clear,0,2012-10-10 00:36:00
4:56 PM,35.6,19.4,52,30.54,10.0,WNW,3.5,-,N/A,,Clear,300,2012-10-10 00:56:00
5:16 PM,37.4,19.4,48,30.54,10.0,Calm,Calm,-,N/A,,Clear,0,2012-10-10 01:16:00
5:36 PM,35.6,19.4,52,30.54,10.0,NE,9.2,-,N/A,,Clear,50,2012-10-10 01:36:00
5:56 PM,35.6,19.4,52,30.54,10.0,NE,9.2,-,N/A,,Clear,50,2012-10-10 01:56:00
6:16 PM,35.6,19.4,52,30.54,10.0,ENE,6.9,-,N/A,,Clear,60,2012-10-10 02:16:00
6:36 PM,33.8,19.4,56,30.53,10.0,NE,8.1,-,N/A,,Clear,50,2012-10-10 02:36:00
6:56 PM,33.8,19.4,56,30.53,10.0,NE,6.9,-,N/A,,Clear,50,2012-10-10 02:56:00
7:36 PM,30.2,17.6,60,30.53,10.0,ENE,8.1,-,N/A,,Clear,70,2012-10-10 03:36:00
7:56 PM,30.2,17.6,60,30.53,10.0,ENE,8.1,-,N/A,,Clear,60,2012-10-10 03:56:00
8:16 PM,30.2,17.6,60,30.53,10.0,ENE,9.2,-,N/A,,Clear,70,2012-10-10 04:16:00
8:36 PM,28.4,15.8,59,30.53,10.0,Calm,Calm,-,N/A,,Clear,0,2012-10-10 04:36:00
8:56 PM,28.4,15.8,59,30.53,10.0,North,4.6,-,N/A,,Clear,10,2012-10-10 04:56:00
9:16 PM,28.4,15.8,59,30.54,10.0,Calm,Calm,-,N/A,,Clear,0,2012-10-10 05:16:00
9:36 PM,24.8,15.8,69,30.54,10.0,West,4.6,-,N/A,,Clear,280,2012-10-10 05:36:00
9:56 PM,21.2,14.0,74,30.54,10.0,WSW,4.6,-,N/A,,Clear,250,2012-10-10 05:56:00
10:16 PM,23.0,17.6,80,30.54,10.0,WSW,3.5,-,N/A,,Clear,240,2012-10-10 06:16:00
10:36 PM,24.8,17.6,74,30.54,10.0,WSW,3.5,-,N/A,,Clear,250,2012-10-10 06:36:00
10:56 PM,24.8,15.8,69,30.54,10.0,WSW,4.6,-,N/A,,Clear,250,2012-10-10 06:56:00
11:16 PM,21.2,15.8,80,30.54,10.0,SSE,4.6,-,N/A,,Clear,160,2012-10-10 07:16:00
11:36 PM,19.4,17.6,93,30.54,10.0,SE,3.5,-,N/A,,Clear,140,2012-10-10 07:36:00
11:56 PM,19.4,17.6,93,30.54,10.0,Calm,Calm,-,N/A,,Clear,0,2012-10-10 07:56:00